TIME,�g�[�m���b�g���n,�t���O,�g�[�mMJ�n,�t���O
2003/1/1 0:00,0,0,0,0
2003/1/1 0:15,0,0,0,0
2003/1/1 0:30,0,0,0,0
2003/1/1 0:45,0,0,0,0
2003/1/1 1:00,0,0,0,0
2003/1/1 1:15,0,0,0,0
2003/1/1 1:30,0,0,0,0
2003/1/1 1:45,0,0,0,0
2003/1/1 2:00,0,0,0,0
2003/1/1 2:15,0,0,0,0
2003/1/1 2:30,0,0,0,0
2003/1/1 2:45,0,0,0,0
2003/1/1 3:00,0,0,0,0
2003/1/1 3:15,0,0,0,0
2003/1/1 3:30,0,0,0,0
2003/1/1 3:45,0,0,0,0
2003/1/1 4:00,0,0,0,0
2003/1/1 4:15,0,0,0,0
2003/1/1 4:30,0,0,0,0
2003/1/1 4:45,0,0,0,0
2003/1/1 5:00,0.00028497,0,34.84,0
2003/1/1 5:15,0.00014007,0,17.06,0
2003/1/1 5:30,0.00013363,0,16.43,0
2003/1/1 5:45,0.00010948,0,13.45,0
2003/1/1 6:00,0.00010787,0,13.26,0
2003/1/1 6:15,0.00010465,0,12.88,0
2003/1/1 6:30,0.00011592,0,14.16,0
2003/1/1 6:45,0.00011431,0,13.97,0
2003/1/1 7:00,0.00013041,0,15.98,0
2003/1/1 7:15,0.00011753,0,14.42,0
2003/1/1 7:30,0.00012558,0,15.29,0
2003/1/1 7:45,0.00012236,0,15.01,0
2003/1/1 8:00,0.00011109,0,13.54,0
2003/1/1 8:15,0.00009982,0,12.15,0
2003/1/1 8:30,0.00010465,0,12.88,0
2003/1/1 8:45,0.00012558,0,15.36,0
2003/1/1 9:00,0.00010304,0,12.69,0
2003/1/1 9:15,0.00010948,0,13.47,0
2003/1/1 9:30,0.00012558,0,15.32,0
2003/1/1 9:45,0.00010948,0,13.31,0
2003/1/1 10:00,0.00011109,0,13.52,0
2003/1/1 10:15,0.00010787,0,13.24,0
2003/1/1 10:30,0.00010626,0,13.05,0
2003/1/1 10:45,0.00010304,0,12.53,0
2003/1/1 11:00,0.00013524,0,16.64,0
2003/1/1 11:15,0.00011109,0,13.59,0
2003/1/1 11:30,0.00011109,0,13.54,0
2003/1/1 11:45,0.00008533,0,10.35,0
2003/1/1 12:00,0.00011914,0,14.61,0
2003/1/1 12:15,0.0000966,0,11.86,0
2003/1/1 12:30,0.00011753,0,14.42,0
2003/1/1 12:45,0.00012075,0,14.82,0
2003/1/1 13:00,0.0000966,0,11.89,0
2003/1/1 13:15,0.00009982,0,12.17,0
2003/1/1 13:30,0.00010626,0,12.93,0
2003/1/1 13:45,0.0001127,0,13.71,0
2003/1/1 14:00,0.00009177,0,11.27,0
2003/1/1 14:15,0.00013524,0,16.64,0
2003/1/1 14:30,0.00008855,0,10.92,0
2003/1/1 14:45,0.00009016,0,11.11,0
2003/1/1 15:00,0.00009821,0,11.94,0
2003/1/1 15:15,0.00010626,0,13,0
2003/1/1 15:30,0.00010465,0,12.83,0
2003/1/1 15:45,0.00010304,0,12.69,0
2003/1/1 16:00,0.00010626,0,13.09,0
2003/1/1 16:15,0.00012075,0,14.82,0
2003/1/1 16:30,0.00009177,0,11.27,0
2003/1/1 16:45,0.00010626,0,13.07,0
2003/1/1 17:00,0.00010626,0,13.07,0
2003/1/1 17:15,0.00010465,0,12.74,0
2003/1/1 17:30,0.00011109,0,13.66,0
2003/1/1 17:45,0.00008372,0,10.26,0
2003/1/1 18:00,0.00012558,0,15.27,0
2003/1/1 18:15,0.00010465,0,12.81,0
2003/1/1 18:30,0.00010626,0,12.95,0
2003/1/1 18:45,0.00010465,0,12.72,0
2003/1/1 19:00,0.00010626,0,13,0
2003/1/1 19:15,0.00008211,0,10.07,0
2003/1/1 19:30,0.00012236,0,15.03,0
2003/1/1 19:45,0.00009982,0,12.12,0
2003/1/1 20:00,0.0001127,0,13.87,0
2003/1/1 20:15,0.00009016,0,11.04,0
2003/1/1 20:30,0.00010143,0,12.36,0
2003/1/1 20:45,0.00010465,0,12.79,0
2003/1/1 21:00,0.00010787,0,13.21,0
2003/1/1 21:15,0.00011109,0,13.61,0
2003/1/1 21:30,0.00009821,0,12.05,0
2003/1/1 21:45,0.00010465,0,12.79,0
2003/1/1 22:00,0.00010787,0,13.19,0
2003/1/1 22:15,0.00010626,0,13.02,0
2003/1/1 22:30,0.00008694,0,10.64,0
2003/1/1 22:45,0.0000966,0,11.82,0
2003/1/1 23:00,0.00007728,0,9.48,0
2003/1/1 23:15,0,0,0,0
2003/1/1 23:30,0,0,0,0
2003/1/1 23:45,0,0,0,0
2003/1/2 0:00,0,0,0,0
2003/1/2 0:15,0,0,0,0
2003/1/2 0:30,0,0,0,0
2003/1/2 0:45,0,0,0,0
2003/1/2 1:00,0,0,0,0
2003/1/2 1:15,0,0,0,0
2003/1/2 1:30,0,0,0,0
2003/1/2 1:45,0,0,0,0
2003/1/2 2:00,0,0,0,0
2003/1/2 2:15,0,0,0,0
2003/1/2 2:30,0,0,0,0
2003/1/2 2:45,0,0,0,0
2003/1/2 3:00,0,0,0,0
2003/1/2 3:15,0,0,0,0
2003/1/2 3:30,0,0,0,0
2003/1/2 3:45,0,0,0,0
2003/1/2 4:00,0,0,0,0
2003/1/2 4:15,0,0,0,0
2003/1/2 4:30,0,0,0,0
2003/1/2 4:45,0,0,0,0
2003/1/2 5:00,0.00028014,0,34.2,0
2003/1/2 5:15,0.00013524,0,16.57,0
2003/1/2 5:30,0.00011914,0,14.58,0
2003/1/2 5:45,0.00013202,0,16.1,0
2003/1/2 6:00,0.00011431,0,13.97,0
2003/1/2 6:15,0.00013041,0,15.95,0
2003/1/2 6:30,0.00010143,0,12.5,0
2003/1/2 6:45,0.00011753,0,14.44,0
2003/1/2 7:00,0.00012236,0,14.96,0
2003/1/2 7:15,0.0001288,0,15.67,0
2003/1/2 7:30,0.0000966,0,11.77,0
2003/1/2 7:45,0.00011914,0,14.51,0
2003/1/2 8:00,0.00013363,0,16.26,0
2003/1/2 8:15,0.00010948,0,13.4,0
2003/1/2 8:30,0.00011753,0,14.42,0
2003/1/2 8:45,0.00012558,0,15.36,0
2003/1/2 9:00,0.00010143,0,12.5,0
2003/1/2 9:15,0.0001127,0,13.8,0
2003/1/2 9:30,0.00012558,0,15.27,0
2003/1/2 9:45,0.00009821,0,11.96,0
2003/1/2 10:00,0.00011592,0,14.18,0
2003/1/2 10:15,0.00011914,0,14.58,0
2003/1/2 10:30,0.00012075,0,14.68,0
2003/1/2 10:45,0.00011109,0,13.54,0
2003/1/2 11:00,0.00010143,0,12.48,0
2003/1/2 11:15,0.00014812,0,18.08,0
2003/1/2 11:30,0.00011109,0,13.68,0
2003/1/2 11:45,0.00012075,0,14.87,0
2003/1/2 12:00,0.00010948,0,13.4,0
2003/1/2 12:15,0.00010304,0,12.62,0
2003/1/2 12:30,0.0001127,0,13.85,0
2003/1/2 12:45,0.00010626,0,12.9,0
2003/1/2 13:00,0.00012075,0,14.8,0
2003/1/2 13:15,0.00012397,0,15.2,0
2003/1/2 13:30,0.00010143,0,12.38,0
2003/1/2 13:45,0.00013202,0,16.1,0
2003/1/2 14:00,0.00009821,0,12.05,0
2003/1/2 14:15,0.00012236,0,14.98,0
2003/1/2 14:30,0.00009982,0,12.24,0
2003/1/2 14:45,0.00012236,0,15.03,0
2003/1/2 15:00,0.00009982,0,12.12,0
2003/1/2 15:15,0.00010143,0,12.48,0
2003/1/2 15:30,0.00011431,0,14.04,0
2003/1/2 15:45,0.00013363,0,16.4,0
2003/1/2 16:00,0.00011109,0,13.59,0
2003/1/2 16:15,0.00009821,0,11.96,0
2003/1/2 16:30,0.00013846,0,16.92,0
2003/1/2 16:45,0.00011914,0,14.65,0
2003/1/2 17:00,0.00009821,0,11.98,0
2003/1/2 17:15,0.00011431,0,13.9,0
2003/1/2 17:30,0.00011592,0,14.23,0
2003/1/2 17:45,0.00012075,0,14.7,0
2003/1/2 18:00,0.00011431,0,13.9,0
2003/1/2 18:15,0.00010787,0,13.26,0
2003/1/2 18:30,0.0001127,0,13.76,0
2003/1/2 18:45,0.00011431,0,14.04,0
2003/1/2 19:00,0.00012236,0,14.91,0
2003/1/2 19:15,0.00010626,0,13.09,0
2003/1/2 19:30,0.00011109,0,13.5,0
2003/1/2 19:45,0.00010626,0,13.07,0
2003/1/2 20:00,0.00010465,0,12.72,0
2003/1/2 20:15,0.00013524,0,16.62,0
2003/1/2 20:30,0.00011109,0,13.52,0
2003/1/2 20:45,0.00010143,0,12.38,0
2003/1/2 21:00,0.00011592,0,14.28,0
2003/1/2 21:15,0.00013041,0,15.88,0
2003/1/2 21:30,0.00010787,0,13.24,0
2003/1/2 21:45,0.00010465,0,12.83,0
2003/1/2 22:00,0.00013202,0,16.12,0
2003/1/2 22:15,0.00011592,0,14.16,0
2003/1/2 22:30,0.00010465,0,12.88,0
2003/1/2 22:45,0.00009982,0,12.2,0
2003/1/2 23:00,0.00005796,0,7.16,0
2003/1/2 23:15,0,0,0,0
2003/1/2 23:30,0,0,0,0
2003/1/2 23:45,0,0,0,0
2003/1/3 0:00,0,0,0,0
2003/1/3 0:15,0,0,0,0
2003/1/3 0:30,0,0,0,0
2003/1/3 0:45,0,0,0,0
2003/1/3 1:00,0,0,0,0
2003/1/3 1:15,0,0,0,0
2003/1/3 1:30,0,0,0,0
2003/1/3 1:45,0,0,0,0
2003/1/3 2:00,0,0,0,0
2003/1/3 2:15,0,0,0,0
2003/1/3 2:30,0,0,0,0
2003/1/3 2:45,0,0,0,0
2003/1/3 3:00,0,0,0,0
2003/1/3 3:15,0,0,0,0
2003/1/3 3:30,0,0,0,0
2003/1/3 3:45,0,0,0,0
2003/1/3 4:00,0,0,0,0
2003/1/3 4:15,0,0,0,0
2003/1/3 4:30,0,0,0,0
2003/1/3 4:45,0,0,0,0
2003/1/3 5:00,0.00027692,0,33.96,0
2003/1/3 5:15,0.00016744,0,20.54,0
2003/1/3 5:30,0.00013363,0,16.4,0
2003/1/3 5:45,0.0001288,0,15.79,0
2003/1/3 6:00,0.00013363,0,16.4,0
2003/1/3 6:15,0.00013363,0,16.26,0
2003/1/3 6:30,0.00013041,0,15.88,0
2003/1/3 6:45,0.00012075,0,14.82,0
2003/1/3 7:00,0.00012075,0,14.84,0
2003/1/3 7:15,0.00011914,0,14.58,0
2003/1/3 7:30,0.00011592,0,14.09,0
2003/1/3 7:45,0.00014168,0,17.37,0
2003/1/3 8:00,0.00010948,0,13.33,0
2003/1/3 8:15,0.00011592,0,14.18,0
2003/1/3 8:30,0.00014329,0,17.44,0
2003/1/3 8:45,0.00012075,0,14.68,0
2003/1/3 9:00,0.00013041,0,15.98,0
2003/1/3 9:15,0.00010948,0,13.45,0
2003/1/3 9:30,0.00011914,0,14.49,0
2003/1/3 9:45,0.0001288,0,15.79,0
2003/1/3 10:00,0.00012236,0,14.89,0
2003/1/3 10:15,0.00011914,0,14.56,0
2003/1/3 10:30,0.00012075,0,14.77,0
2003/1/3 10:45,0.00012236,0,14.98,0
2003/1/3 11:00,0.00011431,0,13.97,0
2003/1/3 11:15,0.00012236,0,15.01,0
2003/1/3 11:30,0.00011431,0,13.94,0
2003/1/3 11:45,0.00010465,0,12.72,0
2003/1/3 12:00,0.00011753,0,14.32,0
2003/1/3 12:15,0.00011431,0,13.99,0
2003/1/3 12:30,0.00012558,0,15.39,0
2003/1/3 12:45,0.00010787,0,13.14,0
2003/1/3 13:00,0.00009821,0,11.94,0
2003/1/3 13:15,0.00012719,0,15.6,0
2003/1/3 13:30,0.00012075,0,14.72,0
2003/1/3 13:45,0.0001127,0,13.78,0
2003/1/3 14:00,0.00012558,0,15.32,0
2003/1/3 14:15,0.00010787,0,13.14,0
2003/1/3 14:30,0.00012236,0,14.91,0
2003/1/3 14:45,0.00011431,0,14.06,0
2003/1/3 15:00,0.00010465,0,12.88,0
2003/1/3 15:15,0.00010304,0,12.6,0
2003/1/3 15:30,0.00011592,0,14.25,0
2003/1/3 15:45,0.00010948,0,13.35,0
2003/1/3 16:00,0.00013041,0,15.88,0
2003/1/3 16:15,0.00010948,0,13.4,0
2003/1/3 16:30,0.00011914,0,14.54,0
2003/1/3 16:45,0.00011914,0,14.65,0
2003/1/3 17:00,0.00011592,0,14.25,0
2003/1/3 17:15,0.00011914,0,14.51,0
2003/1/3 17:30,0.00010787,0,13.26,0
2003/1/3 17:45,0.00010465,0,12.74,0
2003/1/3 18:00,0.00010787,0,13.16,0
2003/1/3 18:15,0.00010948,0,13.45,0
2003/1/3 18:30,0.0001127,0,13.76,0
2003/1/3 18:45,0.00010143,0,12.46,0
2003/1/3 19:00,0.00011109,0,13.64,0
2003/1/3 19:15,0.0001127,0,13.8,0
2003/1/3 19:30,0.00010465,0,12.76,0
2003/1/3 19:45,0.00012397,0,15.22,0
2003/1/3 20:00,0.00012075,0,14.77,0
2003/1/3 20:15,0.00010787,0,13.28,0
2003/1/3 20:30,0.00010787,0,13.21,0
2003/1/3 20:45,0.00010143,0,12.34,0
2003/1/3 21:00,0.00012236,0,15.03,0
2003/1/3 21:15,0.0001127,0,13.78,0
2003/1/3 21:30,0.00011592,0,14.16,0
2003/1/3 21:45,0.00010304,0,12.55,0
2003/1/3 22:00,0.00011753,0,14.44,0
2003/1/3 22:15,0.00012558,0,15.36,0
2003/1/3 22:30,0.00009499,0,11.58,0
2003/1/3 22:45,0.00009821,0,12.05,0
2003/1/3 23:00,0.00007889,0,9.62,0
2003/1/3 23:15,0,0,0,0
2003/1/3 23:30,0,0,0,0
2003/1/3 23:45,0,0,0,0
2003/1/4 0:00,0,0,0,0
2003/1/4 0:15,0,0,0,0
2003/1/4 0:30,0,0,0,0
2003/1/4 0:45,0,0,0,0
2003/1/4 1:00,0,0,0,0
2003/1/4 1:15,0,0,0,0
2003/1/4 1:30,0,0,0,0
2003/1/4 1:45,0,0,0,0
2003/1/4 2:00,0,0,0,0
2003/1/4 2:15,0,0,0,0
2003/1/4 2:30,0,0,0,0
2003/1/4 2:45,0,0,0,0
2003/1/4 3:00,0,0,0,0
2003/1/4 3:15,0,0,0,0
2003/1/4 3:30,0,0,0,0
2003/1/4 3:45,0,0,0,0
2003/1/4 4:00,0,0,0,0
2003/1/4 4:15,0,0,0,0
2003/1/4 4:30,0,0,0,0
2003/1/4 4:45,0,0,0,0
2003/1/4 5:00,0.00027531,0,33.61,0
2003/1/4 5:15,0.00013524,0,16.5,0
2003/1/4 5:30,0.0001288,0,15.67,0
2003/1/4 5:45,0.00014007,0,17.11,0
2003/1/4 6:00,0.00011592,0,14.25,0
2003/1/4 6:15,0.00013202,0,16.12,0
2003/1/4 6:30,0.00010304,0,12.62,0
2003/1/4 6:45,0.00012397,0,15.08,0
2003/1/4 7:00,0.00011431,0,14.04,0
2003/1/4 7:15,0.00012075,0,14.68,0
2003/1/4 7:30,0.00011914,0,14.56,0
2003/1/4 7:45,0.0001127,0,13.8,0
2003/1/4 8:00,0.00009982,0,12.27,0
2003/1/4 8:15,0.00013363,0,16.26,0
2003/1/4 8:30,0.00012236,0,14.98,0
2003/1/4 8:45,0.00010948,0,13.4,0
2003/1/4 9:00,0.0001127,0,13.73,0
2003/1/4 9:15,0.00009982,0,12.12,0
2003/1/4 9:30,0.00011109,0,13.61,0
2003/1/4 9:45,0.00011431,0,14.04,0
2003/1/4 10:00,0.0001127,0,13.71,0
2003/1/4 10:15,0.00012719,0,15.5,0
2003/1/4 10:30,0.00010143,0,12.34,0
2003/1/4 10:45,0.00010787,0,13.26,0
2003/1/4 11:00,0.00009982,0,12.12,0
2003/1/4 11:15,0.0001127,0,13.71,0
2003/1/4 11:30,0.00010948,0,13.45,0
2003/1/4 11:45,0.00010948,0,13.33,0
2003/1/4 12:00,0.0001288,0,15.79,0
2003/1/4 12:15,0.00010626,0,13.05,0
2003/1/4 12:30,0.00010465,0,12.74,0
2003/1/4 12:45,0.00010465,0,12.72,0
2003/1/4 13:00,0.00012719,0,15.48,0
2003/1/4 13:15,0.00010304,0,12.6,0
2003/1/4 13:30,0.00010143,0,12.46,0
2003/1/4 13:45,0.00012397,0,15.08,0
2003/1/4 14:00,0.00010143,0,12.43,0
2003/1/4 14:15,0.00011431,0,13.94,0
2003/1/4 14:30,0.00010948,0,13.45,0
2003/1/4 14:45,0.00009499,0,11.63,0
2003/1/4 15:00,0.00013524,0,16.64,0
2003/1/4 15:15,0.0001127,0,13.73,0
2003/1/4 15:30,0.00010626,0,13.02,0
2003/1/4 15:45,0.00012236,0,15.01,0
2003/1/4 16:00,0.00010948,0,13.31,0
2003/1/4 16:15,0.00009177,0,11.25,0
2003/1/4 16:30,0.00009982,0,12.17,0
2003/1/4 16:45,0.00013524,0,16.45,0
2003/1/4 17:00,0.00011914,0,14.54,0
2003/1/4 17:15,0.00010304,0,12.55,0
2003/1/4 17:30,0.00009499,0,11.58,0
2003/1/4 17:45,0.00013846,0,16.99,0
2003/1/4 18:00,0.00009821,0,12.03,0
2003/1/4 18:15,0.0001288,0,15.74,0
2003/1/4 18:30,0.00010304,0,12.64,0
2003/1/4 18:45,0.00010626,0,13.07,0
2003/1/4 19:00,0.00009338,0,11.49,0
2003/1/4 19:15,0.00010626,0,13.05,0
2003/1/4 19:30,0.00011914,0,14.65,0
2003/1/4 19:45,0.00012719,0,15.5,0
2003/1/4 20:00,0.00010948,0,13.33,0
2003/1/4 20:15,0.00012075,0,14.8,0
2003/1/4 20:30,0.0001127,0,13.85,0
2003/1/4 20:45,0.00010948,0,13.45,0
2003/1/4 21:00,0.00010143,0,12.48,0
2003/1/4 21:15,0.00010626,0,12.95,0
2003/1/4 21:30,0.00010304,0,12.64,0
2003/1/4 21:45,0.00012236,0,14.96,0
2003/1/4 22:00,0.00011109,0,13.54,0
2003/1/4 22:15,0.00009982,0,12.2,0
2003/1/4 22:30,0.00013363,0,16.28,0
2003/1/4 22:45,0.00010787,0,13.12,0
2003/1/4 23:00,0.0000483,0,5.98,0
2003/1/4 23:15,0,0,0,0
2003/1/4 23:30,0,0,0,0
2003/1/4 23:45,0,0,0,0
2003/1/5 0:00,0,0,0,0
2003/1/5 0:15,0,0,0,0
2003/1/5 0:30,0,0,0,0
2003/1/5 0:45,0,0,0,0
2003/1/5 1:00,0,0,0,0
2003/1/5 1:15,0,0,0,0
2003/1/5 1:30,0,0,0,0
2003/1/5 1:45,0,0,0,0
2003/1/5 2:00,0,0,0,0
2003/1/5 2:15,0,0,0,0
2003/1/5 2:30,0,0,0,0
2003/1/5 2:45,0,0,0,0
2003/1/5 3:00,0,0,0,0
2003/1/5 3:15,0.00033971,0,41.64,0
2003/1/5 3:30,0.00018515,0,22.71,0
2003/1/5 3:45,0.000161,0,19.78,0
2003/1/5 4:00,0.00015617,0,19.05,0
2003/1/5 4:15,0.00015456,0,18.86,0
2003/1/5 4:30,0.00015456,0,19,0
2003/1/5 4:45,0.00015134,0,18.44,0
2003/1/5 5:00,0.00015617,0,19.03,0
2003/1/5 5:15,0.00015295,0,18.74,0
2003/1/5 5:30,0.00015134,0,18.58,0
2003/1/5 5:45,0.00015295,0,18.62,0
2003/1/5 6:00,0.00015134,0,18.51,0
2003/1/5 6:15,0.00014973,0,18.29,0
2003/1/5 6:30,0.00015134,0,18.44,0
2003/1/5 6:45,0.00015134,0,18.51,0
2003/1/5 7:00,0.00014812,0,18.06,0
2003/1/5 7:15,0.00015295,0,18.62,0
2003/1/5 7:30,0.00015295,0,18.74,0
2003/1/5 7:45,0.00014168,0,17.37,0
2003/1/5 8:00,0.00013685,0,16.78,0
2003/1/5 8:15,0.00015939,0,19.57,0
2003/1/5 8:30,0.0001449,0,17.7,0
2003/1/5 8:45,0.0001449,0,17.68,0
2003/1/5 9:00,0.00014329,0,17.49,0
2003/1/5 9:15,0.00014168,0,17.32,0
2003/1/5 9:30,0.00014168,0,17.37,0
2003/1/5 9:45,0.00014329,0,17.49,0
2003/1/5 10:00,0.00014812,0,18.15,0
2003/1/5 10:15,0.00014329,0,17.58,0
2003/1/5 10:30,0.00014812,0,18.03,0
2003/1/5 10:45,0.00014329,0,17.61,0
2003/1/5 11:00,0.0001449,0,17.68,0
2003/1/5 11:15,0.00014329,0,17.54,0
2003/1/5 11:30,0.00014168,0,17.42,0
2003/1/5 11:45,0.00013685,0,16.8,0
2003/1/5 12:00,0.000161,0,19.76,0
2003/1/5 12:15,0.0001449,0,17.66,0
2003/1/5 12:30,0.00014812,0,18.03,0
2003/1/5 12:45,0.0001449,0,17.73,0
2003/1/5 13:00,0.00014651,0,17.92,0
2003/1/5 13:15,0.00014651,0,17.96,0
2003/1/5 13:30,0.00013041,0,15.95,0
2003/1/5 13:45,0.000161,0,19.62,0
2003/1/5 14:00,0.00014812,0,18.03,0
2003/1/5 14:15,0.0001449,0,17.75,0
2003/1/5 14:30,0.0001288,0,15.79,0
2003/1/5 14:45,0.00015295,0,18.7,0
2003/1/5 15:00,0.00014651,0,17.89,0
2003/1/5 15:15,0.0001449,0,17.7,0
2003/1/5 15:30,0.00014168,0,17.32,0
2003/1/5 15:45,0.0001449,0,17.66,0
2003/1/5 16:00,0.0001449,0,17.7,0
2003/1/5 16:15,0.00014168,0,17.42,0
2003/1/5 16:30,0.00014168,0,17.42,0
2003/1/5 16:45,0.00014973,0,18.22,0
2003/1/5 17:00,0.00014651,0,17.87,0
2003/1/5 17:15,0.00014812,0,18.15,0
2003/1/5 17:30,0.00014651,0,17.94,0
2003/1/5 17:45,0.00015134,0,18.53,0
2003/1/5 18:00,0.0001288,0,15.72,0
2003/1/5 18:15,0.00016261,0,19.85,0
2003/1/5 18:30,0.00014651,0,17.96,0
2003/1/5 18:45,0.00014651,0,18.01,0
2003/1/5 19:00,0.00014329,0,17.56,0
2003/1/5 19:15,0.00014651,0,17.92,0
2003/1/5 19:30,0.00014168,0,17.28,0
2003/1/5 19:45,0.00014651,0,18.01,0
2003/1/5 20:00,0.00014812,0,18.18,0
2003/1/5 20:15,0.00014329,0,17.58,0
2003/1/5 20:30,0.00014812,0,18.03,0
2003/1/5 20:45,0.00015134,0,18.48,0
2003/1/5 21:00,0.00014329,0,17.49,0
2003/1/5 21:15,0.00014651,0,17.92,0
2003/1/5 21:30,0.00014812,0,18.18,0
2003/1/5 21:45,0.00014812,0,18.03,0
2003/1/5 22:00,0.00014651,0,17.92,0
2003/1/5 22:15,0.00014973,0,18.25,0
2003/1/5 22:30,0.00014973,0,18.27,0
2003/1/5 22:45,0.00014812,0,18.1,0
2003/1/5 23:00,0.0001449,0,17.7,0
2003/1/5 23:15,0.00015295,0,18.65,0
2003/1/5 23:30,0.00014329,0,17.44,0
2003/1/5 23:45,0.00015134,0,18.55,0
2003/1/6 0:00,0.00014651,0,17.87,0
2003/1/6 0:15,0.00013202,0,16.21,0
2003/1/6 0:30,0.00016261,0,19.92,0
2003/1/6 0:45,0.0001449,0,17.82,0
2003/1/6 1:00,0.00014812,0,18.06,0
2003/1/6 1:15,0.00014812,0,18.15,0
2003/1/6 1:30,0.00014812,0,18.15,0
2003/1/6 1:45,0.00014651,0,17.87,0
2003/1/6 2:00,0.00014651,0,18.01,0
2003/1/6 2:15,0.00015134,0,18.6,0
2003/1/6 2:30,0.00014651,0,17.84,0
2003/1/6 2:45,0.00013685,0,16.73,0
2003/1/6 3:00,0.00015617,0,19.19,0
2003/1/6 3:15,0.00015134,0,18.46,0
2003/1/6 3:30,0.00014651,0,17.92,0
2003/1/6 3:45,0.00014812,0,18.13,0
2003/1/6 4:00,0.00014651,0,17.94,0
2003/1/6 4:15,0.00014812,0,18.2,0
2003/1/6 4:30,0.00014973,0,18.32,0
2003/1/6 4:45,0.0001449,0,17.63,0
2003/1/6 5:00,0.0001449,0,17.77,0
2003/1/6 5:15,0.00012719,0,15.58,0
2003/1/6 5:30,0.00016261,0,19.9,0
2003/1/6 5:45,0.00014651,0,18.01,0
2003/1/6 6:00,0.00014973,0,18.27,0
2003/1/6 6:15,0.00014651,0,17.87,0
2003/1/6 6:30,0.00014651,0,17.87,0
2003/1/6 6:45,0.00013846,0,16.99,0
2003/1/6 7:00,0.00014812,0,18.18,0
2003/1/6 7:15,0.00014651,0,17.99,0
2003/1/6 7:30,0.00014812,0,18.2,0
2003/1/6 7:45,0.00014168,0,17.4,0
2003/1/6 8:00,0.00014651,0,17.89,0
2003/1/6 8:15,0.00014812,0,18.1,0
2003/1/6 8:30,0.00014651,0,17.96,0
2003/1/6 8:45,0.00014651,0,18.01,0
2003/1/6 9:00,0.0001449,0,17.75,0
2003/1/6 9:15,0.00014329,0,17.51,0
2003/1/6 9:30,0.00015295,0,18.74,0
2003/1/6 9:45,0.00014973,0,18.32,0
2003/1/6 10:00,0.00013363,0,16.31,0
2003/1/6 10:15,0.00006762,0,8.27,0
2003/1/6 10:30,0.0001127,0,13.87,0
2003/1/6 10:45,0.00011109,0,13.59,0
2003/1/6 11:00,0.00010304,0,12.69,0
2003/1/6 11:15,0.00010304,0,12.57,0
2003/1/6 11:30,0.00010948,0,13.47,0
2003/1/6 11:45,0.00012558,0,15.32,0
2003/1/6 12:00,0.00010948,0,13.4,0
2003/1/6 12:15,0.00010948,0,13.35,0
2003/1/6 12:30,0.0001127,0,13.87,0
2003/1/6 12:45,0.00008533,0,10.52,0
2003/1/6 13:00,0.00012075,0,14.7,0
2003/1/6 13:15,0.00011109,0,13.57,0
2003/1/6 13:30,0.00010787,0,13.28,0
2003/1/6 13:45,0.00010626,0,13.09,0
2003/1/6 14:00,0.00011109,0,13.54,0
2003/1/6 14:15,0.00010948,0,13.4,0
2003/1/6 14:30,0.00011109,0,13.54,0
2003/1/6 14:45,0.00010787,0,13.28,0
2003/1/6 15:00,0.00010948,0,13.35,0
2003/1/6 15:15,0.00010787,0,13.12,0
2003/1/6 15:30,0.00009982,0,12.24,0
2003/1/6 15:45,0.00008533,0,10.47,0
2003/1/6 16:00,0.00013363,0,16.26,0
2003/1/6 16:15,0.00010143,0,12.38,0
2003/1/6 16:30,0.00011109,0,13.57,0
2003/1/6 16:45,0.00010787,0,13.24,0
2003/1/6 17:00,0.00011753,0,14.32,0
2003/1/6 17:15,0.00010143,0,12.34,0
2003/1/6 17:30,0.00010304,0,12.57,0
2003/1/6 17:45,0.00009821,0,12.08,0
2003/1/6 18:00,0.00011109,0,13.5,0
2003/1/6 18:15,0.0001288,0,15.72,0
2003/1/6 18:30,0.00009982,0,12.22,0
2003/1/6 18:45,0.00018515,0,22.74,0
2003/1/6 19:00,0.00014812,0,18.1,0
2003/1/6 19:15,0.00014651,0,18.01,0
2003/1/6 19:30,0.00014168,0,17.42,0
2003/1/6 19:45,0.00014651,0,17.87,0
2003/1/6 20:00,0.00014651,0,17.87,0
2003/1/6 20:15,0.00013685,0,16.71,0
2003/1/6 20:30,0.00014168,0,17.32,0
2003/1/6 20:45,0.0001449,0,17.63,0
2003/1/6 21:00,0.00014812,0,18.1,0
2003/1/6 21:15,0.00014007,0,17.16,0
2003/1/6 21:30,0.00014329,0,17.61,0
2003/1/6 21:45,0.0001449,0,17.7,0
2003/1/6 22:00,0.00013041,0,16,0
2003/1/6 22:15,0.00015617,0,19.1,0
2003/1/6 22:30,0.00013363,0,16.26,0
2003/1/6 22:45,0.00015617,0,19.1,0
2003/1/6 23:00,0.00014651,0,17.99,0
2003/1/6 23:15,0.0001288,0,15.69,0
2003/1/6 23:30,0.00015617,0,19.14,0
2003/1/6 23:45,0.0001449,0,17.7,0
2003/1/7 0:00,0.00014651,0,17.84,0
2003/1/7 0:15,0.00012236,0,14.98,0
2003/1/7 0:30,0.00015295,0,18.77,0
2003/1/7 0:45,0.00014651,0,17.87,0
2003/1/7 1:00,0.00014007,0,17.18,0
2003/1/7 1:15,0.0001449,0,17.73,0
2003/1/7 1:30,0.00013685,0,16.69,0
2003/1/7 1:45,0.0001449,0,17.66,0
2003/1/7 2:00,0.00014168,0,17.35,0
2003/1/7 2:15,0.00014007,0,17.18,0
2003/1/7 2:30,0.00013846,0,16.95,0
2003/1/7 2:45,0.00015134,0,18.44,0
2003/1/7 3:00,0.0001449,0,17.7,0
2003/1/7 3:15,0.00014812,0,18.1,0
2003/1/7 3:30,0.00012397,0,15.22,0
2003/1/7 3:45,0.00015778,0,19.29,0
2003/1/7 4:00,0.00014651,0,17.84,0
2003/1/7 4:15,0.00014651,0,17.92,0
2003/1/7 4:30,0.00014168,0,17.28,0
2003/1/7 4:45,0.00014812,0,18.03,0
2003/1/7 5:00,0.00013041,0,15.95,0
2003/1/7 5:15,0.00016261,0,19.83,0
2003/1/7 5:30,0.0001449,0,17.63,0
2003/1/7 5:45,0.00014007,0,17.06,0
2003/1/7 6:00,0.0001449,0,17.7,0
2003/1/7 6:15,0.00013041,0,16.02,0
2003/1/7 6:30,0.00014973,0,18.41,0
2003/1/7 6:45,0.0001288,0,15.69,0
2003/1/7 7:00,0.00015456,0,18.84,0
2003/1/7 7:15,0.0001449,0,17.7,0
2003/1/7 7:30,0.00012719,0,15.48,0
2003/1/7 7:45,0.00015778,0,19.26,0
2003/1/7 8:00,0.00014329,0,17.44,0
2003/1/7 8:15,0.00014007,0,17.09,0
2003/1/7 8:30,0.00014651,0,18.01,0
2003/1/7 8:45,0.00013524,0,16.64,0
2003/1/7 9:00,0.00014812,0,18.03,0
2003/1/7 9:15,0.00014973,0,18.22,0
2003/1/7 9:30,0.00013202,0,16.14,0
2003/1/7 9:45,0.00015456,0,18.84,0
2003/1/7 10:00,0.00014812,0,18.03,0
2003/1/7 10:15,0.0001288,0,15.84,0
2003/1/7 10:30,0.00015617,0,19.07,0
2003/1/7 10:45,0.00013202,0,16.24,0
2003/1/7 11:00,0.00015134,0,18.44,0
2003/1/7 11:15,0.00002093,0,2.53,0
2003/1/7 11:30,0,0,0,0
2003/1/7 11:45,0,0,0,0
2003/1/7 12:00,0,0,0,0
2003/1/7 12:15,0.00004025,0,4.92,0
2003/1/7 12:30,0.00003864,0,4.8,0
2003/1/7 12:45,0.00003703,0,4.51,0
2003/1/7 13:00,0,0,0,0
2003/1/7 13:15,0.00004669,0,5.79,0
2003/1/7 13:30,0.00003864,0,4.73,0
2003/1/7 13:45,0.00003542,0,4.28,0
2003/1/7 14:00,0.00004025,0,4.89,0
2003/1/7 14:15,0.00003703,0,4.51,0
2003/1/7 14:30,0.00001127,0,1.47,0
2003/1/7 14:45,0.00002576,0,3.24,0
2003/1/7 15:00,0.00004347,0,5.37,0
2003/1/7 15:15,0.0000322,0,3.95,0
2003/1/7 15:30,0.00004347,0,5.41,0
2003/1/7 15:45,0.0000322,0,3.92,0
2003/1/7 16:00,0.00003703,0,4.59,0
2003/1/7 16:15,0.00003864,0,4.77,0
2003/1/7 16:30,0.00004025,0,5.01,0
2003/1/7 16:45,0.00004025,0,4.89,0
2003/1/7 17:00,0.00003542,0,4.37,0
2003/1/7 17:15,0.00003703,0,4.49,0
2003/1/7 17:30,0.00003381,0,4.16,0
2003/1/7 17:45,0.00004025,0,4.96,0
2003/1/7 18:00,0.00003703,0,4.56,0
2003/1/7 18:15,0.00003059,0,3.71,0
2003/1/7 18:30,0.00003381,0,4.09,0
2003/1/7 18:45,0.00032039,0,39.28,0
2003/1/7 19:00,0.00016583,0,20.23,0
2003/1/7 19:15,0.00015295,0,18.72,0
2003/1/7 19:30,0.00015295,0,18.79,0
2003/1/7 19:45,0.00015134,0,18.6,0
2003/1/7 20:00,0.00015134,0,18.46,0
2003/1/7 20:15,0.00015456,0,18.91,0
2003/1/7 20:30,0.00014812,0,18.13,0
2003/1/7 20:45,0.00008694,0,10.64,0
2003/1/7 21:00,0,0,0,0
2003/1/7 21:15,0,0,0,0
2003/1/7 21:30,0,0,0,0
2003/1/7 21:45,0.00003381,0,4.14,0
2003/1/7 22:00,0.00004508,0,5.46,0
2003/1/7 22:15,0.00003703,0,4.51,0
2003/1/7 22:30,0.00004186,0,5.06,0
2003/1/7 22:45,0.00002093,0,2.55,0
2003/1/7 23:00,0.0000161,0,2.06,0
2003/1/7 23:15,0.00003703,0,4.61,0
2003/1/7 23:30,0.00003703,0,4.47,0
2003/1/7 23:45,0.00003381,0,4.04,0
2003/1/8 0:00,0.00003864,0,4.82,0
2003/1/8 0:15,0.00003542,0,4.25,0
2003/1/8 0:30,0.00003542,0,4.33,0
2003/1/8 0:45,0.00004347,0,5.41,0
2003/1/8 1:00,0.00003542,0,4.35,0
2003/1/8 1:15,0.00003381,0,4.21,0
2003/1/8 1:30,0.00003381,0,4.18,0
2003/1/8 1:45,0.00004347,0,5.25,0
2003/1/8 2:00,0.00003381,0,4.11,0
2003/1/8 2:15,0.00003703,0,4.56,0
2003/1/8 2:30,0.00004025,0,4.92,0
2003/1/8 2:45,0.00003542,0,4.42,0
2003/1/8 3:00,0.00005152,0,6.26,0
2003/1/8 3:15,0.00002898,0,3.45,0
2003/1/8 3:30,0.00003542,0,4.25,0
2003/1/8 3:45,0.00007084,0,8.6,0
2003/1/8 4:00,0.00004508,0,5.46,0
2003/1/8 4:15,0.00002254,0,2.81,0
2003/1/8 4:30,0.00002576,0,3.1,0
2003/1/8 4:45,0.00003864,0,4.82,0
2003/1/8 5:00,0.00016261,0,19.88,0
2003/1/8 5:15,0.00025599,0,31.29,0
2003/1/8 5:30,0.00015939,0,19.4,0
2003/1/8 5:45,0.00015456,0,18.88,0
2003/1/8 6:00,0.00015456,0,18.84,0
2003/1/8 6:15,0.00015295,0,18.72,0
2003/1/8 6:30,0.00015295,0,18.62,0
2003/1/8 6:45,0.00015456,0,18.98,0